    Observer details:
    160 Castelmartini.  Observers E. Prosperi, S. Prosperi.  Measurer E. Prosperi.
        0.35-m f/10 Schmidt-Cassegrain + CCD.
    300 Bisei Spaceguard Center--BATTeRS.  Observers S. Urakawa, N. Hashimoto,
        K. Nishiyama.  1.0-m f/3.0 reflector + CCD.
    470 Ceccano.  Observers G. Masi, F. Nocentini.  Measurers G. Masi, U. Masi,
        F. Nocentini.  0.43-m f/6.8 reflector + CCD.
    595 Farra d'Isonzo.  Observers E. Pettarin, M. Vivona.  Measurer E. Pettarin.
        0.40-m f/4.5 reflector + CCD.
    703 Catalina Sky Survey.  Observer J. A. Johnson.  Measurers A. Boattini,
        E. J. Christensen, A. R. Gibbs, A. D. Grauer, R. E. Hill, R. A. Kowalski,
        S. M. Larson, R. H. McNaught.  0.68-m Schmidt + CCD.
    718 Wiggins Observatory, Tooele.  Observer P. Wiggins.  0.35-m f/5.5
        Schmidt-Cassegrain + CCD.
    850 Cordell-Lorenz Observatory, Sewanee.  Observer D. T. Durig.  0.30-m f/2.5
        Schmidt-Cassegrain + 765x510 CCD.
    900 Moriyama.  Observer Y. Ikari.  0.26-m f/7.0 reflector + CCD.
    954 Teide Observatory.  Observer N. E. Pritchett.  0.35-m f/11
        Schmidt-Cassegrain + CCD.
    C23 Olmen.  Observer A. Diepvens.  0.20-m f/9 refractor + CCD.
    C27 Pallerols.  Observer A. Jorba.  0.25-m f/4.8 reflector + CCD.
    C47 Nonndorf.  Observer G. Dangl.  0.25-m f/4.8 reflector + CCD.
    C77 Bernezzo Observatory.  Observer A. Mantero.  0.25-m f/4 reflector + CCD.
    E12 Siding Spring Survey.  Observer R. H. McNaught.  Measurers J. D. Ahern,
        E. C. Beshore, A. Boattini, A. R. Gibbs, A. D. Grauer, R. E. Hill,
        R. A. Kowalski, S. M. Larson, R. H. McNaught.  0.5-m Uppsala Schmidt + CCD.
    E23 Arcadia.  Observer A. Hidas.  0.35-m Schmidt-Cassegrain + CCD.
    H06 RAS Observatory, Mayhill.  Observers H. Sato, M. Urbanik.  0.25-m f/3.4
        astrograph + CCD, 0.25-m f/3.4 reflector + CCD.
    H21 Astronomical Research Observatory, Westfield.  Observer R. Holmes.
        Measurers L. Buzzi, S. Foglia, T. Vorobjov.  0.61-m f/4.0 astrograph + CCD.
    H36 Sandlot Observatory, Scranton.  Observer G. Hug.  0.56-m reflector + CCD.
    I39 Observatorio Cruz del Sur, San Justo.  Observer A. Chapman.  0.20-m f/4
        reflector + CCD.
    I89 RAS Observatory, Nerpio.  Observer E. Bryssinck.  0.43-m f/6.8 reflector
        + CCD.
    
    Orbital elements:
    2012 QG42                                           PHA, Earth MOID = 0.0137 AU
    Epoch 2012 Sept. 30.0 TT = JDT 2456200.5                MPC
    M 308.63651              (2000.0)            P               Q
    n   0.94803187     Peri.  116.11577     -0.19301091     -0.98070755
    a   1.0262522      Node   344.91579     +0.85236094     -0.15194632
    e   0.3761938      Incl.    6.83603     +0.48603252     -0.12298384
    P   1.04           H   20.3           G   0.15           U   8
    Residuals in seconds of arc
    120826 703  0.4+  0.0     120826 470  0.3-  0.3+    120827 E12  0.0   0.1-
    120826 703  0.3+  0.1-    120826 470  0.9-  0.5+    120827 595  0.3+  0.0
    120826 703  0.3+  0.0     120826 470  0.6-  0.4+    120827 595  0.2+  0.3-
    120826 703  0.2+  0.0     120826 C77  0.2-  0.4+    120827 C47  0.7-  0.1+
    120826 703  0.1-  0.1-    120827 C23  0.7-  0.1+    120827 C47  0.0   0.2+
    120826 703  0.7-  0.4-    120827 C23  0.0   0.7-    120827 C47  0.0   0.2+
    120826 703  0.3-  0.5-    120827 C27  0.4+  0.0     120827 C47  0.2-  0.1+
    120826 703  0.4-  0.1-    120827 C23  0.3+  1.3-    120827 C47  0.1-  0.3+
    120826 703  0.2+  0.2+    120827 C23  0.0   0.6-    120828 160  0.2+  0.1+
    120826 703  0.5+  0.0     120827 C27  0.1-  0.2+    120828 160  0.0   0.1+
    120826 703  0.2-  0.0     120827 C27  0.3-  0.3-    120828 160  0.0   0.2+
    120826 703  0.1+  0.0     120827 I89  0.6+  0.3-    120828 954  0.6-  0.9+
    120826 H06  0.1-  0.7+    120827 I89  0.2+  0.3-    120828 954  0.2+  0.1-
    120826 H06  0.1+  0.5+    120827 I39  0.3-  0.0     120828 954  0.1+  0.1-
    120826 H06  0.1+  0.5+    120827 I89  0.4+  0.1-    120828 H21  0.2+  0.1-
    120826 H06  0.2-  0.5+    120827 I89  0.1+  0.1-    120828 H21  0.3+  0.0
    120826 900  0.1+  0.1-    120827 I39  0.2-  0.7+    120828 H21  0.3+  0.2-
    120826 900  0.2+  0.1-    120827 I39  0.1-  0.1-    120828 H21  0.1+  0.2-
    120826 900  0.2+  0.1-    120827 C23  0.5-  0.3+    120828 H21  0.3+  0.0
    120826 E23  0.0   0.0     120827 C23  0.9-  0.2+    120828 850  0.0   0.1+
    120826 E23  0.1+  0.0     120827 718  0.0   0.1-    120828 850  0.4+  0.1-
    120826 E23  0.0   0.2-    120827 718  0.1+  0.2+    120828 850  0.5+  0.0
    120826 300  0.5+  0.4-    120827 850  0.0   0.3-    120828 H36  0.3+  0.1-
    120826 300  0.1+  0.2-    120827 718  0.1+  0.2-    120828 H36  0.3+  0.1-
    120826 300  0.5-  0.1+    120827 718  0.2+  0.3+    120828 H36  0.3+  0.0
    120826 300  0.2+  0.3-    120827 850  0.2+  0.1-    120828 H36  0.4+  0.0
    120826 C77  0.7+  0.1+    120827 850  0.1+  0.0     120828 H06  0.6-  0.4-
    120826 C77  0.4+  0.1+    120827 850  0.1+  0.0     120828 H06  0.1-  0.0
    120826 470  0.1-  0.4+    120827 850  0.2+  0.1-    120828 H06  0.5-  0.2-
    120826 C77  0.4+  0.2+    120827 E12  0.0   0.1-    120828 H06  0.7-  0.6+
    120826 470  0.9-  0.7+    120827 E12  0.0   0.1-    120828 H06  0.4-  0.2+
    
    Ephemeris:
    2012 QG42                a,e,i = 1.03, 0.38, 7                   q = 0.6402
    Date    TT    R. A. (2000) Decl.     Delta      r     Elong.  Phase     V
    2012 07 29    23 58 59.8 -13 03 11   0.3411  1.2639   130.5    37.6    20.0
    ...
    2012 08 13    00 06 33.1 -12 08 33   0.2221  1.1965   142.3    31.2    18.8
    ...
    2012 08 21    00 05 03.6 -11 32 18   0.1632  1.1556   149.7    26.2    17.9
    ...
    2012 08 27    23 59 01.3 -10 46 51   0.1213  1.1226   156.5    21.0    17.0
    2012 08 28    23 57 21.0 -10 36 02   0.1145  1.1170   157.8    20.0    16.8
    2012 08 29    23 55 24.7 -10 23 49   0.1078  1.1112   159.1    18.9    16.7
    ...
    2012 09 04    23 34 34.5 -08 17 22   0.06852 1.0759   169.5     9.8    15.3
    ...
    2012 09 12    21 15 03.5 +06 28 57   0.02348 1.0262   146.8    32.5    13.6
    ...
    2012 09 27    13 25 34.6 +17 30 09   0.08497 0.9265    25.8   151.9    23.6
    
    A. U. Tomatic                (C) Copyright 2012 MPC           M.P.E.C. 2012-Q72
    

    Read MPEC 2012-Q71 Read MPEC 2012-Q73


    MPEC number:

    Enter an MPEC number in one of the following forms:

    • 1997-B01 (the full form)
    • J97B01 (the packed version of the full form)
    • B01 (the abbreviated form)